IGO670 VISR-VIDP

Flight info

Callsign IGO670
Flight time 0h 57m
Altitude 37000
Route SGR W23 RILVU W21 PANLA W23 BIKUX W21 PKT J22 CHG J21 UPTEX UPTEX6E
Aircraft A20N/M-SDE2E3FGHIRWXY/LB1

Departure

Time 2026-04-30 10:17
Airport Sheikh ul Alam International Airport (VISR)

Arrival

Time 2026-04-30 11:14
Airport Indira Gandhi International Airport (VIDP)
Time Latitude Longitude Altitude Speed Heading
2026-04-30 10:07 34.00058 74.76068 5465 ft 2 kts 115°
2026-04-30 10:07 34.00066 74.76056 5467 ft 1 kts 146°
2026-04-30 10:08 34.00068 74.76055 5466 ft 0 kts 148°
2026-04-30 10:12 34.00032 74.76063 5465 ft 10 kts 176°
2026-04-30 10:13 33.99985 74.76060 5465 ft 0 kts 184°
2026-04-30 10:13 33.99978 74.76060 5465 ft 5 kts 184°
2026-04-30 10:14 33.99911 74.76053 5464 ft 13 kts 187°
2026-04-30 10:14 33.99837 74.76071 5464 ft 9 kts 137°
2026-04-30 10:14 33.99833 74.76075 5464 ft 0 kts 136°
2026-04-30 10:15 33.99797 74.76119 5463 ft 29 kts 135°
2026-04-30 10:15 33.99515 74.76446 5467 ft 82 kts 135°
2026-04-30 10:16 33.98968 74.77075 5464 ft 135 kts 137°
2026-04-30 10:16 33.98187 74.77991 5465 ft 180 kts 136°
2026-04-30 10:16 33.97278 74.79052 5921 ft 181 kts 135°
2026-04-30 10:17 33.94946 74.79304 6777 ft 182 kts 207°
2026-04-30 10:17 33.92458 74.78397 7593 ft 203 kts 188°
2026-04-30 10:17 33.90992 74.78278 7845 ft 225 kts 180°
2026-04-30 10:18 33.89329 74.78392 8058 ft 250 kts 174°
2026-04-30 10:18 33.87539 74.78684 8246 ft 275 kts 171°
2026-04-30 10:18 33.85612 74.79090 8763 ft 286 kts 169°
2026-04-30 10:19 33.81677 74.79993 10300 ft 291 kts 169°
2026-04-30 10:19 33.79617 74.80465 10657 ft 310 kts 169°
2026-04-30 10:19 33.77434 74.80951 10931 ft 329 kts 170°
2026-04-30 10:19 33.75147 74.81444 11380 ft 339 kts 170°
2026-04-30 10:20 33.72796 74.81941 11992 ft 344 kts 170°
2026-04-30 10:20 33.68060 74.82943 13338 ft 351 kts 170°
2026-04-30 10:20 33.65640 74.83483 14019 ft 355 kts 169°
2026-04-30 10:21 33.63200 74.84051 14636 ft 359 kts 169°
2026-04-30 10:21 33.60734 74.84640 15243 ft 362 kts 169°
2026-04-30 10:21 33.58250 74.85241 15838 ft 366 kts 169°
2026-04-30 10:21 33.55743 74.85854 16445 ft 370 kts 169°
2026-04-30 10:22 33.53203 74.86476 17033 ft 373 kts 169°
2026-04-30 10:22 33.50650 74.87100 17619 ft 377 kts 169°
2026-04-30 10:22 33.48063 74.87730 18175 ft 381 kts 169°
2026-04-30 10:22 33.45454 74.88363 18689 ft 385 kts 169°
2026-04-30 10:23 33.42814 74.89002 19184 ft 388 kts 170°
2026-04-30 10:23 33.40144 74.89649 19704 ft 391 kts 170°
2026-04-30 10:23 33.37473 74.90378 20222 ft 395 kts 165°
2026-04-30 10:23 33.34934 74.91538 20716 ft 400 kts 154°
2026-04-30 10:24 33.32493 74.93174 21231 ft 404 kts 150°
2026-04-30 10:24 33.30892 74.94388 21551 ft 406 kts 148°
2026-04-30 10:24 33.28532 74.96279 22051 ft 409 kts 147°
2026-04-30 10:24 33.26169 74.98208 22517 ft 412 kts 147°
2026-04-30 10:25 33.23783 75.00140 22972 ft 415 kts 147°
2026-04-30 10:25 33.21400 75.02033 23410 ft 418 kts 148°
2026-04-30 10:25 33.18926 75.03961 23793 ft 421 kts 148°
2026-04-30 10:25 33.16453 75.05859 24140 ft 424 kts 149°
2026-04-30 10:26 33.13963 75.07753 24478 ft 427 kts 149°
2026-04-30 10:26 33.11565 75.09570 24830 ft 429 kts 149°
2026-04-30 10:26 33.09038 75.11483 25177 ft 432 kts 149°
2026-04-30 10:26 33.06490 75.13410 25529 ft 435 kts 149°
2026-04-30 10:27 33.03926 75.15348 25895 ft 437 kts 149°
2026-04-30 10:27 33.01351 75.17294 26243 ft 439 kts 149°
2026-04-30 10:27 32.98766 75.19248 26562 ft 442 kts 149°
2026-04-30 10:27 32.96152 75.21222 26905 ft 445 kts 149°
2026-04-30 10:28 32.93526 75.23206 27244 ft 447 kts 149°
2026-04-30 10:28 32.90889 75.25195 27567 ft 449 kts 149°
2026-04-30 10:28 32.88240 75.27192 27868 ft 452 kts 149°
2026-04-30 10:28 32.85584 75.29193 28134 ft 454 kts 149°
2026-04-30 10:29 32.82940 75.31184 28422 ft 456 kts 149°
2026-04-30 10:29 32.80249 75.33208 28725 ft 458 kts 149°
2026-04-30 10:29 32.77548 75.35238 29018 ft 460 kts 149°
2026-04-30 10:29 32.74838 75.37275 29289 ft 463 kts 149°
2026-04-30 10:30 32.72097 75.39332 29564 ft 465 kts 149°
2026-04-30 10:30 32.69361 75.41385 29840 ft 467 kts 149°
2026-04-30 10:30 32.66603 75.43453 30066 ft 470 kts 149°
2026-04-30 10:30 32.63832 75.45529 30284 ft 471 kts 149°
2026-04-30 10:31 32.61051 75.47611 30525 ft 473 kts 149°
2026-04-30 10:31 32.58211 75.49588 30754 ft 473 kts 155°
2026-04-30 10:31 32.55189 75.51095 30991 ft 471 kts 163°
2026-04-30 10:31 32.52073 75.52310 31257 ft 471 kts 166°
2026-04-30 10:32 32.48933 75.53416 31522 ft 471 kts 167°
2026-04-30 10:32 32.45789 75.54499 31776 ft 472 kts 167°
2026-04-30 10:32 32.42637 75.55604 32033 ft 472 kts 166°
2026-04-30 10:32 32.39523 75.56732 32291 ft 473 kts 166°
2026-04-30 10:33 32.36390 75.57900 32538 ft 474 kts 166°
2026-04-30 10:33 32.33230 75.59107 32778 ft 475 kts 165°
2026-04-30 10:33 32.30089 75.60324 33013 ft 476 kts 165°
2026-04-30 10:33 32.26933 75.61557 33267 ft 476 kts 165°
2026-04-30 10:34 32.23826 75.62893 33492 ft 480 kts 160°
2026-04-30 10:34 32.20855 75.64749 33682 ft 485 kts 152°
2026-04-30 10:34 32.18000 75.66895 33875 ft 487 kts 149°
2026-04-30 10:34 32.15224 75.69106 34061 ft 487 kts 148°
2026-04-30 10:35 32.12411 75.71373 34211 ft 489 kts 149°
2026-04-30 10:35 32.09594 75.73618 34366 ft 490 kts 149°
2026-04-30 10:35 32.06746 75.75844 34523 ft 491 kts 150°
2026-04-30 10:35 32.03886 75.78037 34697 ft 491 kts 150°
2026-04-30 10:36 32.01005 75.80213 34842 ft 492 kts 150°
2026-04-30 10:36 31.98107 75.82381 34986 ft 493 kts 151°
2026-04-30 10:36 31.95202 75.84545 35128 ft 494 kts 151°
2026-04-30 10:36 31.92288 75.86712 35299 ft 495 kts 151°
2026-04-30 10:37 31.89371 75.88876 35421 ft 496 kts 151°
2026-04-30 10:37 31.86482 75.91010 35544 ft 497 kts 151°
2026-04-30 10:37 31.83544 75.93173 35681 ft 498 kts 151°
2026-04-30 10:37 31.80617 75.95326 35826 ft 498 kts 151°
2026-04-30 10:38 31.77665 75.97495 35946 ft 499 kts 151°
2026-04-30 10:38 31.74716 75.99661 36063 ft 500 kts 151°
2026-04-30 10:38 31.71765 76.01828 36191 ft 501 kts 151°
2026-04-30 10:38 31.68805 76.04001 36333 ft 501 kts 151°
2026-04-30 10:39 31.65841 76.06178 36443 ft 502 kts 151°
2026-04-30 10:39 31.62868 76.08358 36553 ft 503 kts 151°
2026-04-30 10:39 31.59898 76.10536 36666 ft 504 kts 151°
2026-04-30 10:39 31.56932 76.12710 36690 ft 502 kts 151°
2026-04-30 10:40 31.51021 76.17036 36694 ft 500 kts 151°
2026-04-30 10:40 31.45160 76.21317 36695 ft 499 kts 151°
2026-04-30 10:41 31.39267 76.25616 36692 ft 499 kts 151°
2026-04-30 10:41 31.33367 76.29914 36692 ft 499 kts 151°
2026-04-30 10:42 31.27468 76.34208 36696 ft 499 kts 152°
2026-04-30 10:42 31.21565 76.38497 36697 ft 499 kts 152°
2026-04-30 10:43 31.15708 76.42746 36696 ft 498 kts 152°
2026-04-30 10:43 31.09816 76.47014 36702 ft 498 kts 152°
2026-04-30 10:44 31.03931 76.51271 36700 ft 498 kts 152°
2026-04-30 10:44 30.98034 76.55532 36710 ft 498 kts 152°
2026-04-30 10:45 30.92143 76.59780 36707 ft 498 kts 152°
2026-04-30 10:45 30.86256 76.64020 36707 ft 498 kts 152°
2026-04-30 10:46 30.80360 76.68260 36700 ft 498 kts 152°
2026-04-30 10:46 30.74459 76.72496 36692 ft 499 kts 152°
2026-04-30 10:47 30.68351 76.76174 36696 ft 488 kts 171°
2026-04-30 10:47 30.65082 76.76766 36698 ft 477 kts 182°
2026-04-30 10:47 30.61772 76.76987 36691 ft 477 kts 184°
2026-04-30 10:48 30.55130 76.77090 36694 ft 477 kts 186°
2026-04-30 10:48 30.48481 76.77125 36701 ft 477 kts 185°
2026-04-30 10:49 30.41852 76.77236 36709 ft 475 kts 185°
2026-04-30 10:49 30.35238 76.77405 36707 ft 474 kts 185°
2026-04-30 10:50 30.31950 76.77501 36366 ft 470 kts 184°
2026-04-30 10:50 30.28725 76.77595 35779 ft 469 kts 184°
2026-04-30 10:50 30.25430 76.77695 34822 ft 480 kts 186°
2026-04-30 10:50 30.22023 76.77811 33706 ft 498 kts 186°
2026-04-30 10:51 30.18525 76.77930 32926 ft 502 kts 185°
2026-04-30 10:51 30.15047 76.78045 32578 ft 495 kts 185°
2026-04-30 10:51 30.11637 76.78152 32238 ft 487 kts 185°
2026-04-30 10:51 30.08263 76.78252 31868 ft 480 kts 184°
2026-04-30 10:52 30.04949 76.78346 31441 ft 471 kts 184°
2026-04-30 10:52 30.01711 76.78435 30889 ft 462 kts 183°
2026-04-30 10:52 29.98547 76.78518 30383 ft 452 kts 183°
2026-04-30 10:52 29.95428 76.78598 29898 ft 441 kts 182°
2026-04-30 10:53 29.92430 76.78674 29334 ft 432 kts 182°
2026-04-30 10:53 29.89452 76.78751 28592 ft 426 kts 182°
2026-04-30 10:53 29.86461 76.78829 27799 ft 422 kts 181°
2026-04-30 10:53 29.83570 76.78906 27088 ft 417 kts 181°
2026-04-30 10:54 29.80689 76.78985 26395 ft 412 kts 181°
2026-04-30 10:54 29.77838 76.79064 25725 ft 407 kts 181°
2026-04-30 10:54 29.75026 76.79142 25090 ft 402 kts 181°
2026-04-30 10:54 29.72244 76.79221 24464 ft 397 kts 181°
2026-04-30 10:55 29.69496 76.79301 23846 ft 392 kts 181°
2026-04-30 10:55 29.66793 76.79379 23239 ft 387 kts 181°
2026-04-30 10:55 29.64107 76.79457 22506 ft 383 kts 181°
2026-04-30 10:55 29.61455 76.79535 21745 ft 380 kts 181°
2026-04-30 10:56 29.58823 76.79612 20994 ft 377 kts 181°
2026-04-30 10:56 29.56217 76.79690 20276 ft 374 kts 182°
2026-04-30 10:56 29.53645 76.79768 19821 ft 363 kts 182°
2026-04-30 10:56 29.51161 76.79848 19429 ft 352 kts 182°
2026-04-30 10:57 29.48730 76.79927 18889 ft 347 kts 182°
2026-04-30 10:57 29.46321 76.80003 18304 ft 345 kts 182°
2026-04-30 10:57 29.43917 76.80076 17669 ft 344 kts 183°
2026-04-30 10:57 29.41539 76.80148 17022 ft 341 kts 183°
2026-04-30 10:58 29.39173 76.80219 16408 ft 338 kts 183°
2026-04-30 10:58 29.36867 76.80287 15825 ft 335 kts 183°
2026-04-30 10:58 29.34520 76.80356 15229 ft 332 kts 183°
2026-04-30 10:58 29.32220 76.80424 14665 ft 328 kts 183°
2026-04-30 10:59 29.29963 76.80489 14129 ft 325 kts 183°
2026-04-30 10:59 29.27711 76.80555 13575 ft 322 kts 184°
2026-04-30 10:59 29.25483 76.80620 12994 ft 319 kts 184°
2026-04-30 10:59 29.23278 76.80683 12415 ft 315 kts 183°
2026-04-30 11:00 29.21102 76.80745 11866 ft 311 kts 183°
2026-04-30 11:00 29.19011 76.80806 11619 ft 296 kts 183°
2026-04-30 11:00 29.16992 76.80871 11393 ft 283 kts 183°
2026-04-30 11:00 29.15070 76.80934 11182 ft 271 kts 184°
2026-04-30 11:01 29.13206 76.80995 10873 ft 265 kts 184°
2026-04-30 11:01 29.11370 76.81051 10502 ft 262 kts 184°
2026-04-30 11:01 29.09546 76.81105 10092 ft 260 kts 184°
2026-04-30 11:01 29.07743 76.81157 9688 ft 258 kts 184°
2026-04-30 11:02 29.05957 76.81208 9243 ft 256 kts 184°
2026-04-30 11:02 29.04177 76.81258 8779 ft 255 kts 184°
2026-04-30 11:02 29.02421 76.81307 8299 ft 256 kts 184°
2026-04-30 11:02 29.00641 76.81356 7829 ft 256 kts 183°
2026-04-30 11:03 28.98882 76.81406 7534 ft 246 kts 183°
2026-04-30 11:03 28.97219 76.81459 7332 ft 232 kts 183°
2026-04-30 11:03 28.95618 76.81511 6938 ft 228 kts 183°
2026-04-30 11:04 28.92472 76.81601 6019 ft 228 kts 182°
2026-04-30 11:04 28.90893 76.81638 5553 ft 227 kts 181°
2026-04-30 11:04 28.89322 76.81679 5110 ft 225 kts 181°
2026-04-30 11:04 28.87760 76.81720 4663 ft 223 kts 180°
2026-04-30 11:05 28.86209 76.81762 4209 ft 223 kts 179°
2026-04-30 11:05 28.84664 76.81805 3762 ft 221 kts 178°
2026-04-30 11:05 28.83134 76.81850 3352 ft 218 kts 176°
2026-04-30 11:05 28.81673 76.82122 2931 ft 212 kts 157°
2026-04-30 11:06 28.80325 76.82757 2686 ft 210 kts 150°
2026-04-30 11:06 28.79004 76.83477 2643 ft 210 kts 150°
2026-04-30 11:06 28.77668 76.84155 2633 ft 211 kts 158°
2026-04-30 11:06 28.76233 76.84527 2760 ft 213 kts 166°
2026-04-30 11:07 28.74757 76.84770 2941 ft 215 kts 168°
2026-04-30 11:07 28.73263 76.84967 2969 ft 216 kts 170°
2026-04-30 11:07 28.71761 76.85146 2972 ft 217 kts 171°
2026-04-30 11:07 28.70276 76.85318 2975 ft 218 kts 171°
2026-04-30 11:08 28.68758 76.85487 2975 ft 218 kts 171°
2026-04-30 11:08 28.67244 76.85653 2977 ft 219 kts 171°
2026-04-30 11:08 28.65731 76.85817 2988 ft 218 kts 171°
2026-04-30 11:08 28.64227 76.85980 2987 ft 213 kts 172°
2026-04-30 11:09 28.62809 76.86125 2969 ft 196 kts 171°
2026-04-30 11:09 28.61483 76.86255 2998 ft 194 kts 171°
2026-04-30 11:09 28.60131 76.86405 2985 ft 200 kts 170°
2026-04-30 11:09 28.58775 76.86697 2978 ft 199 kts 154°
2026-04-30 11:10 28.57758 76.87680 2985 ft 189 kts 113°
2026-04-30 11:10 28.57449 76.89089 2983 ft 183 kts 92°
2026-04-30 11:10 28.57403 76.90553 2991 ft 186 kts 88°
2026-04-30 11:10 28.57400 76.92015 2985 ft 188 kts 88°
2026-04-30 11:11 28.57395 76.93519 2987 ft 189 kts 88°
2026-04-30 11:11 28.57381 76.94996 2985 ft 187 kts 90°
2026-04-30 11:11 28.57359 76.96463 3011 ft 184 kts 90°
2026-04-30 11:11 28.57333 76.97878 2800 ft 176 kts 89°
2026-04-30 11:12 28.57304 76.99239 2550 ft 164 kts 90°
2026-04-30 11:12 28.57278 77.00475 2249 ft 151 kts 90°
2026-04-30 11:12 28.57250 77.01642 1910 ft 144 kts 90°
2026-04-30 11:12 28.57224 77.02753 1618 ft 134 kts 89°
2026-04-30 11:13 28.57197 77.03791 1448 ft 130 kts 89°
2026-04-30 11:13 28.57182 77.04472 1345 ft 131 kts 91°
2026-04-30 11:13 28.57156 77.05504 1254 ft 128 kts 90°
2026-04-30 11:13 28.57128 77.06825 1036 ft 127 kts 86°
2026-04-30 11:14 28.57094 77.07841 964 ft 130 kts 93°
2026-04-30 11:14 28.57050 77.08866 821 ft 129 kts 91°
2026-04-30 11:14 28.57029 77.09820 777 ft 101 kts 91°
2026-04-30 11:14 28.57021 77.10192 775 ft 40 kts 91°
2026-04-30 11:15 28.57017 77.10443 776 ft 31 kts 92°
2026-04-30 11:15 28.57009 77.10685 775 ft 31 kts 91°
2026-04-30 11:15 28.57004 77.10897 777 ft 14 kts 92°
2026-04-30 11:15 28.56947 77.10970 777 ft 13 kts 145°
2026-04-30 11:16 28.56873 77.11027 776 ft 13 kts 147°
2026-04-30 11:16 28.56797 77.11080 776 ft 13 kts 148°
2026-04-30 11:16 28.56726 77.11066 776 ft 11 kts 237°
2026-04-30 11:16 28.56729 77.10996 776 ft 9 kts 298°
2026-04-30 11:17 28.56778 77.10985 776 ft 12 kts 44°
2026-04-30 11:17 28.56775 77.11077 776 ft 13 kts 110°
2026-04-30 11:17 28.56723 77.11145 776 ft 10 kts 100°
2026-04-30 11:17 28.56728 77.11220 776 ft 10 kts 83°
2026-04-30 11:18 28.56729 77.11231 776 ft 0 kts 83°